Regional Weather Roundup
Issued by NWS

Home | Current Version | Previous Version | Text Only | Print | Product List | Glossary On
Versions: 1 2 3 4 5 6 7 8 9 10 11 12 13 14 15 16 17 18 19 20 21 22 23 24 25 26 27 28 29 30 31 32 33 34 35 36 37 38 39 40 41 42 43 44 45 46 47 48 49 50
000
ASCA44 KEWX 180220
RWRMX

LATIN AMERICA AND CARIBBEAN REGIONAL WEATHER ROUNDUP
NATIONAL WEATHER SERVICE AUSTIN/SAN ANTONIO TX
800 PM CST TUE JAN 17 2017

NOTE: "FAIR" INDICATED FEW OR NO CLOUDS BELOW 12,000 FEET WITH NO
SIGNIFICANT WEATHER AND/OR OBSTRUCTIONS TO VISIBILITY.

BAJA CALIFORNIA

CITY           SKY/WX    TMP DP  RH WIND       PRES   REMARKS
LORETO           N/A    N/A N/A N/A MISG        N/A
LA PAZ         PTCLDY    64  52  63 N6        30.05R
MEXICALI       CLEAR     61  32  33 W5        30.04F
S.J. DEL CABO  PTCLDY    66  52  59 NE7       30.04R
TIJUANA        CLEAR     54  43  66 CALM      30.14R

NORTHWESTERN MEXICO

CITY           SKY/WX    TMP DP  RH WIND       PRES   REMARKS
CULIACAN       CLEAR     66  46  48 W6        29.99R
DURANGO        CLOUDY    54  43  66 S6        30.17R
GUAYMAS        CLEAR     64  57  77 CALM      30.00R
HERMOSILLO     CLEAR     64  46  52 SW2       30.06R
CD. JUAREZ     PTCLDY    46  39  76 NE9       30.05R WCI  42
LOS MOCHIS     CLEAR     63  52  67 NW8       30.05R
OBREGON        CLEAR     61  50  67 W5        30.00R

NORTHEASTERN MEXICO

CITY           SKY/WX    TMP DP  RH WIND       PRES   REMARKS
CHIHUAHUA      CLEAR     46  21  36 NE5       30.07R WCI  44
MATAMOROS      PTCLDY    72  70  94 SE7       29.96R
MONCLOVA         N/A    N/A N/A N/A MISG        N/A
MONTERREY      CLOUDY    68  54  60 W5        29.97F
NUEVO LAREDO   MOCLDY    61  57  88 N12       29.98R
PIEDRAS NEGRAS   N/A    N/A N/A N/A MISG        N/A
REYNOSA        CLEAR     72  66  83 SE12      29.94R
SALTILLO       CLOUDY    57  50  77 CALM      30.14R FOG
TORREON        PTCLDY    75  39  27 S9        29.97R
CD. VICTORIA   MOCLDY    75  61  60 SE12      29.93R

WESTERN MEXICO

CITY           SKY/WX    TMP DP  RH WIND       PRES   REMARKS
AGUASCALIENTES PTCLDY    59  28  31 S6        30.21R
COLIMA         PTCLDY    70  66  88 W7        30.08R
DEL BAJIO      MOCLDY    61  34  36 SW7       30.25R
GUADALAJARA    MOCLDY    66  37  34 SW6       30.16R
MANZANILLO     PTCLDY    75  68  78 NW7       29.91R
MAZATLAN       MOCLDY    68  61  77 NW2       30.01R
P. VALLARTA      N/A    N/A N/A N/A MISG        N/A
URUAPAN          N/A    N/A N/A N/A MISG        N/A
ZACATECAS        N/A    N/A N/A N/A MISG        N/A

CENTRAL MEXICO

CITY           SKY/WX    TMP DP  RH WIND       PRES   REMARKS
CUERNAVACA       N/A    N/A N/A N/A MISG        N/A
MEXICO CITY    PTCLDY    63  41  45 SE9       30.27R
MORELIA        PTCLDY    61  43  51 CALM      30.22R
POZA RICA      MOCLDY    73  68  83 CALM      29.97R
PUEBLA         PTCLDY    52  39  62 S6        30.30R
QUERETARO      MOCLDY    63  41  45 SW6       30.25R
S. LUIS POTOSI CLOUDY    66  28  24 S6        30.17R
TAMPICO          N/A    N/A N/A N/A MISG        N/A
TOLUCA         MOCLDY    52  41  66 CALM      30.37R

SOUTHERN MEXICO

CITY           SKY/WX    TMP DP  RH WIND       PRES   REMARKS
ACAPULCO       PTCLDY    79  72  78 W5        29.92R
B. DE HUATULCO   N/A    N/A N/A N/A MISG        N/A
OAXACA         MOCLDY    70  46  43 SE9       30.18R
P. ESCONDIDO     N/A    N/A N/A N/A MISG        N/A
VERACRUZ       MOCLDY    75  72  88 E3        29.94R
ZIHUATANEJO    PTCLDY    77  70  78 CALM      29.95R

YUCATAN PENINSULA

CITY           SKY/WX    TMP DP  RH WIND       PRES   REMARKS
CAMPECHE       CLEAR     82  66  57 E12       29.96R
CANCUN         PTCLDY    77  70  78 E12       30.09S
CHETUMAL       PTCLDY    77  72  83 SE12      30.05R
CD. DEL CARMEN   N/A    N/A N/A N/A MISG        N/A
COZUMEL        PTCLDY    72  70  94 SE5       30.07R
MERIDA         CLEAR     77  64  65 E7        30.02R
MINATITLAN       N/A    N/A N/A N/A MISG        N/A
TAPACHULA      CLEAR     75  72  88 CALM      29.92R
TUX. GUTIERREZ PTCLDY    77  66  69 W15       29.96R
VILLAHERMOSA   CLEAR     73  68  83 E7        29.96R

CENTRAL AMERICA

CITY           SKY/WX    TMP DP  RH WIND       PRES   REMARKS
BELIZE CITY    PTCLDY    79  73  83 E8        30.02R
MANAGUA        PTCLDY    77  70  78 E12       29.94R

CARIBBEAN

CITY           SKY/WX    TMP DP  RH WIND       PRES   REMARKS
ARUBA          PTCLDY    75  72  88 E14       29.97S
CURACAO        PTCLDY    79  72  78 E15       30.00R
KINGSTON       PTCLDY    79  68  69 W5        30.06S
NASSAU         PTCLDY    72  64  78 CALM      30.24S
SAN JUAN       LGT RAIN  75  72  88 SE8       30.11R
SANTO DOMINGO  PTCLDY    73  70  88 N5        30.09R
ST. CROIX      CLEAR     73  63  68 NE7       30.08S
ST. MAARTEN    PTCLDY    77  68  73 NE12      30.06S
ST. THOMAS     MOCLDY    75  66  73 NE14G26   30.08S

$$





USA.gov is the U.S. government's official web portal to all federal, state and local government web resources and services.